This is the latest recevied weather packets stored in our database for station/object N1JOV-7. If no packets are shown the sender has not sent any weather packets the latest 10 day(s).
| Time | Temp. | Humidity | Pressure | Rain* | Wind** | Luminosity | Snow |
|---|---|---|---|---|---|---|---|
| 1777522861 | 5.56° C | 99% | 1013.9 hPa | 0.76 mm | - | - | - |
| 1777522261 | 5.56° C | 99% | 1013.9 hPa | 1.27 mm | - | - | - |
| 1777521662 | 5.56° C | 99% | 1013.9 hPa | 0.76 mm | - | - | - |
| 1777521062 | 5.56° C | 99% | 1014.1 hPa | 1.02 mm | - | - | - |
| 1777520462 | 5.56° C | 99% | 1014.1 hPa | 0.76 mm | - | - | - |
| 1777519862 | 5.56° C | 99% | 1014.3 hPa | 0.76 mm | - | - | - |
| 1777519262 | 5.56° C | 99% | 1014.3 hPa | 1.27 mm | - | - | - |
| 1777518661 | 5.56° C | 99% | 1014.4 hPa | 1.52 mm | - | - | - |
| 1777518061 | 5.56° C | 99% | 1014.6 hPa | 1.02 mm | - | - | - |
| 1777517461 | 5.56° C | 99% | 1014.6 hPa | 1.27 mm | - | - | - |
| 1777516861 | 6.11° C | 99% | 1014.9 hPa | 2.03 mm | - | - | - |
| 1777516262 | 6.11° C | 99% | 1015 hPa | 2.29 mm | - | - | - |
| 1777515662 | 6.11° C | 99% | 1015.4 hPa | 3.3 mm | - | - | - |
| 1777515062 | 6.11° C | 99% | 1015.4 hPa | 2.03 mm | - | - | - |
| 1777514462 | 6.11° C | 99% | 1015.5 hPa | 1.78 mm | - | - | - |
| 1777513862 | 6.11° C | 99% | 1015.6 hPa | 1.52 mm | - | - | - |
| 1777513261 | 6.11° C | 99% | 1015.5 hPa | 0.76 mm | - | - | - |
| 1777512661 | 6.11° C | 99% | 1015.6 hPa | 1.02 mm | - | - | - |
| 1777512061 | 6.11° C | 99% | 1015.7 hPa | 0 mm | - | - | - |
| 1777511462 | 6.11° C | 99% | 1015.7 hPa | 0 mm | - | - | - |
| 1777510862 | 6.11° C | 99% | 1015.7 hPa | 0 mm | - | - | - |
| 1777510262 | 6.11° C | 99% | 1015.8 hPa | 0 mm | - | - | - |
| 1777509662 | 6.11° C | 99% | 1015.8 hPa | 0 mm | - | - | - |
| 1777509063 | 6.11° C | 99% | 1015.7 hPa | 0 mm | - | - | - |
| 1777508462 | 6.11° C | 98% | 1015.6 hPa | 0.76 mm | - | - | - |
* Rain latest hour (hover to see other rain measurements)
** Current wind speed in m/s (hover to see current wind gust speed)